Regional Weather Roundup
Issued by NWS

Home | Current Version | Previous Version | Graphics & Text | Print | Product List | Glossary On
Versions: 1 2 3 4 5 6 7 8 9 10 11 12 13 14 15 16 17 18 19 20 21 22 23 24 25 26 27 28 29 30 31 32 33 34 35 36 37 38 39 40 41 42 43 44 45 46 47 48 49 50
368
ASUS45 KCYS 221910
RWRWY

WYOMING REGIONAL WEATHER ROUNDUP
NATIONAL WEATHER SERVICE CHEYENNE WY
1200 PM MST WED FEB 22 2017

NOTE:  "FAIR" INDICATES FEW OR NO CLOUDS BELOW 12,000 FEET
WITH NO SIGNIFICANT WEATHER AND/OR OBSTRUCTIONS TO VISIBILITY.

WYZ001-222000-
YELLOWSTONE NATIONAL PARK

CITY           SKY/WX    TMP DP  RH WIND       PRES   REMARKS
LK YELLOWSTONE   N/A     25  17  72 CALM      29.87F
W YELLOWSTONE  NOT AVBL

$$
WYZ002>013-054>058-071-098>099-222000-
NORTHERN WYOMING

CITY           SKY/WX    TMP DP  RH WIND       PRES   REMARKS
JACKSON        CLOUDY    30  19  64 S15       29.90F WCI  19
CODY           PTSUNNY   41  14  33 NW8       29.85F
GREYBULL       FAIR      44  22  41 VRB6      29.85F
WORLAND        FAIR      44  21  40 VRB5      29.85F
SHERIDAN       CLOUDY    40  28  62 N13       29.86R WCI  32
BUFFALO        CLOUDY    42  26  53 N17G25    29.85S
GILLETTE       FAIR      45  26  47 NW24G30   29.83F
HULETT         FAIR      45  27  49 W14G25    29.82F
NEWCASTLE      FAIR      45  23  42 NW22      29.82F

$$
WYZ014>020-022>026-101>103-222000-
CENTRAL WYOMING

CITY           SKY/WX    TMP DP  RH WIND       PRES   REMARKS
BIG PINEY      FAIR      25  19  78 NE8       29.93R WCI  16
PINEDALE       FAIR      28  21  74 CALM      29.92F
DUBOIS         FAIR      30  12  47 NW15      29.85F WCI  19
LANDER         NOT AVBL
RIVERTON       FAIR      41  17  38 NW13      29.84F
CASPER         FAIR      40  17  39 MISG      29.87F
DOUGLAS        PTSUNNY   44  19  36 W18G28    29.85S

$$
WYZ021-027>030-104>119-222000-
SOUTHERN WYOMING

CITY           SKY/WX    TMP DP  RH WIND       PRES   REMARKS
EVANSTON       FLURRIES  30  23  75 CALM      29.90F
KEMMERER         N/A     32  23  69 NW3       29.91S
FORT BRIDGER   CLOUDY    30  28  92 NW5       29.94F WCI  26
ROCK SPRINGS   CLOUDY    29  24  82 SW5       29.92F WCI  24
DIXON          FLURRIES  31  28  85 CALM      29.96F
RAWLINS        CLOUDY    30  24  78 VRB6      29.89F WCI  24
SARATOGA       LGT SNOW  30  30 100 SE10      29.91F WCI  21
LARAMIE        CLOUDY    33  27  78 S6        29.88F WCI  28
CHEYENNE       PTSUNNY   43  16  33 NW22G32   29.85F
TORRINGTON     FAIR      50  16  25 W16G28    29.82S
PINE BLUFFS    CLOUDY    50  19  29 NW23G31   29.86F

$$




USA.gov is the U.S. government's official web portal to all federal, state and local government web resources and services.